Weather 🌤️

Recent data

Temperatures

Wind

Pressure

Humidity & Precipitation

Last data
obsTime qcStatus tempAvg heatindexAvg windspeedAvg windgustAvg winddirAvg pressureAvg humidityAvg precipRate precipTotal
2026-09-04 22:34:51 0 28.1 27.5 2.2 11.9 224 999.83 35 0 0
2026-09-04 22:29:50 0 28.2 27.5 2.9 11.9 227 999.66 35 0 0
2026-09-04 22:24:50 0 28.3 27.6 3.6 11.9 234 999.66 35 0 0
2026-09-04 22:19:54 1 28.4 27.6 2.8 11.9 227 999.49 34.1 0 0
2026-09-04 22:14:53 0 28.6 27.8 4 11.9 230 999.49 34 0 0
2026-09-04 22:09:50 0 28.8 27.9 1.4 11.9 218 999.32 34 0 0
2026-09-04 22:04:50 0 28.8 27.9 1.8 11.9 215 999.15 34 0 0
2026-09-04 21:59:51 0 28.9 28 7 11.9 223 999.32 34 0 0
2026-09-04 21:54:52 0 28.9 28 5.5 11.9 226 999.15 34 0 0
2026-09-04 21:49:50 0 29 28.1 5.2 10.4 214 999.15 34 0 0
2026-09-04 21:44:51 1 29.1 28.2 3.9 9 229 999.15 33.8 0 0
2026-09-04 21:39:51 0 29.1 28.2 2.6 9 227 998.82 33.8 0 0

Hourly data

Temperatures

Wind

Pressure

Humidity & Precipitation

Last data
obsTime qcStatus tempAvg heatindexAvg windspeedAvg windgustAvg winddirAvg pressureAvg humidityAvg precipRate precipTotal
2026-09-04 21:59:51 0 29.2 28.3 3.1 8 223 998.65 33.8 0 0
2026-09-04 20:59:51 1 30.4 29.4 1.7 13.2 226 997.8 32.3 0 0
2026-09-04 19:59:50 1 31.8 30.9 8.4 18.9 231 996.95 31.9 0 0
2026-09-04 18:59:54 1 32.6 32.1 10.7 20.1 236 996.62 33.8 0 0
2026-09-04 17:59:51 1 32.5 32.1 9 20.7 236 996.44 35 0 0
2026-09-04 16:59:51 0 31.1 30.7 6.7 15.3 226 996.62 36.1 0 0
2026-09-04 15:59:50 0 30.8 30.7 2.6 6.8 206 997.46 39.6 0 0
2026-09-04 14:59:51 1 30 29.9 2.6 7.4 200 997.97 41 0 0
2026-09-04 13:59:51 1 28.7 28.6 3.2 6.7 195 998.48 43.6 0 0
2026-09-04 12:59:51 0 27.2 27.3 2.1 6.1 191 999.16 46.7 0 0
2026-09-04 11:59:51 1 25.2 25.1 1.7 4.9 180 999.83 51.5 0 0
2026-09-04 10:59:51 1 22.2 21.9 1.7 6.3 257 1000 56 0 0
2026-09-04 09:59:51 1 20.5 20.5 2.4 5.6 249 1000 57.9 0 0
2026-09-04 08:59:51 1 19.7 19.7 1 3.4 220 1000 58.4 0 0
2026-09-04 07:59:51 0 19.4 19.4 0.2 1.3 215 1000 57.9 0 0
2026-09-04 06:59:51 0 19.7 19.7 0.1 2.6 158 1000 56.6 0 0
2026-09-04 05:59:53 1 20.2 20.2 0.5 2.8 159 1000.34 55.1 0 0
2026-09-04 04:59:52 0 21 20.8 0.1 2 160 1001.02 53.8 0 0
2026-09-04 03:59:50 0 21.6 21.2 0.3 3 164 1001.36 52.4 0 0
2026-09-04 02:59:54 0 22.7 22.4 0.8 5.2 209 1001.69 49.7 0 0
2026-09-04 01:59:53 0 23.4 23.1 2.9 7.7 230 1001.86 48.3 0 0
2026-09-04 00:59:52 0 24.1 23.8 3.4 6.3 226 1002.03 47.6 0 0
2026-09-03 23:59:52 0 24.8 24.6 2.6 6 228 1002.2 46.9 0 0
2026-09-03 22:59:52 0 25.7 25.5 3.1 6.6 227 1002.2 45.7 0 0